Погода в Суруловке

Россия / Ульяновская область     53°05′20″N   47°44′34″E
темп.,
°C
ветер,
м/с
пор.,
м/с
влажн.,
%
обл.,
%
осадки,
мм/ч
давл.,
гПа
погр.,
м
14 апреля, ср
ср1401:00+9юв22690 0.0 103011
04:00+8в22722 0.0 103010
07:00+8в22800 0.0 102920
10:00+14юв58755 0.0 1028505
13:00+17юв68575 0.0 10261052
16:00+18юв68569 0.0 10251232
19:00+15вюв486815 0.0 1023215
22:00+12юв37862 0.0 1024140
15 апреля, чт
чт1501:00+10вюв22890 0.0 102213
04:00+8в22875 0.0 102210
07:00+8всв118799 0.0 102111
10:00+14вюв346030 0.0 1020411
13:00+18юв344441 0.0 1019833
16:00+20ююв443845 0.0 10181297
19:00+17юв22504 0.0 101716
22:00+13вюв225910 0.0 101811
16 апреля, пт
пт1601:00+11св116164 0.0 101710
04:00+10св226392 0.0 101710
07:00+9св2269100 0.0 101820
10:00+15всв465272 0.0 1018412
13:00+18всв454053 0.0 10181091
16:00+19всв443650 0.0 10182060
19:00+16св485516 0.0 1019152
22:00+11ссв411825 0.0 1021314
17 апреля, сб
сб1701:00+9св511865 0.0 1021277
04:00+7св410925 0.0 1022251
07:00+7св5109110 0.0 1023338
10:00+10св797129 0.0 1024538
13:00+12всв685872 0.0 1024793
16:00+14св77435 0.0 10241200
19:00+11св59465 0.0 1024352
22:00+8св512500 0.0 1025333
18 апреля, вс
вс1801:00+5св411625 0.0 1026260
04:00+4св311695 0.0 1026207
07:00+4св39727 0.0 1027261
10:00+9всв68515 0.0 10271038
13:00+12всв78425 0.0 10261472
16:00+13всв784020 0.0 10261720
19:00+10св61048100 0.0 1026516
22:00+8св51158100 0.0 1028401